This is the latest recevied weather packets stored in our database for station/object HK6RM-17. If no packets are shown the sender has not sent any weather packets the latest 10 day(s).
| Time | Temp. | Humidity | Pressure | Rain* | Wind** | Luminosity | Snow |
|---|---|---|---|---|---|---|---|
| 1777842678 | 16.67° C | 78% | 1012 hPa | 0 mm | - | - | - |
| 1777842077 | 16.67° C | 78% | 1012 hPa | 0 mm | - | - | - |
| 1777841476 | 17.22° C | 78% | 1012 hPa | 0 mm | - | - | - |
| 1777840876 | 17.78° C | 78% | 1012 hPa | 0 mm | - | - | - |
| 1777840276 | 18.33° C | 80% | 1012 hPa | 0 mm | - | - | - |
| 1777839674 | 18.33° C | 78% | 1012 hPa | 0 mm | - | - | - |
| 1777839074 | 18.33° C | 77% | 1012 hPa | 0 mm | - | - | - |
| 1777838473 | 18.33° C | 73% | 1012 hPa | 0 mm | - | - | - |
| 1777837873 | 18.89° C | 73% | 1012 hPa | 0 mm | - | - | - |
| 1777837272 | 18.89° C | 73% | 1012 hPa | 0 mm | - | - | - |
| 1777836670 | 19.44° C | 73% | 1012 hPa | 0 mm | - | - | - |
| 1777836068 | 19.44° C | 73% | 1012 hPa | 0 mm | - | - | - |
| 1777835468 | 19.44° C | 73% | 1012 hPa | 0 mm | - | - | - |
| 1777834867 | 19.44° C | 73% | 1012 hPa | 0 mm | - | - | - |
| 1777834266 | 19.44° C | 74% | 1012 hPa | 0 mm | - | - | - |
| 1777833666 | 19.44° C | 74% | 1013 hPa | 0 mm | - | - | - |
| 1777833064 | 20° C | 74% | 1013 hPa | 0 mm | - | - | - |
| 1777832458 | 20° C | 74% | 1014 hPa | 0 mm | - | - | - |
| 1777831857 | 20° C | 74% | 1014 hPa | 0 mm | - | - | - |
| 1777831255 | 20° C | 76% | 1014 hPa | 0 mm | - | - | - |
| 1777830655 | 20° C | 77% | 1014 hPa | 0 mm | - | - | - |
| 1777830053 | 18.89° C | 79% | 1014 hPa | 0 mm | - | - | - |
| 1777829452 | 18.89° C | 79% | 1014 hPa | 0 mm | - | - | - |
| 1777828850 | 19.44° C | 79% | 1015 hPa | 0 mm | - | - | - |
| 1777828248 | 20° C | 79% | 1015 hPa | 0 mm | - | - | - |
* Rain latest hour (hover to see other rain measurements)
** Current wind speed in m/s (hover to see current wind gust speed)